Powrót do katalogu

FREGAT DEB

LostHEO
NORAD 45913·DEBRIS·🇷🇺 Russia

Wystrzelony Jul 18, 2011 z Baikonur Cosmodrome

Loading…

Następne Przeloty (najbliższe 24 godziny)

TLE

NieaktualneSource: Space-Track

Epoka: Jul 20, 2020, 01:37 UTC

1 45913U 11037EJ  20202.06793516  .00004008  00000-0  65083-2 0  9993
2 45913  52.3445 328.5545 2717815  67.6439 318.8531  9.19380901   981

Śledź FREGAT DEB w czasie rzeczywistym z AllMySat

Download on the App Store